User: anonymous   Login
Location: Mentone
(34.5413°N, 85.5351°W)
Time: 13:24:45
(UTC-05:00)
Language:

ADEOS Rocket - Orbit

View from above orbital plane
View from above orbital plane
View from above satellite
View from above satellite

Ground track
Ground track

The orbit data is extracted from the following two-line orbital elements,

1 24279U 96046C   16150.54223919  .00000023  00000-0  73528-4 0  9991
2 24279  98.7006 136.9557 0299931 187.0149 283.3618 13.47049854972593
Epoch (UTC): 29 May 2016 13:00:49
Eccentricity: 0.0299931
inclination: 98.7006°
perigee height: 859 km
apogee height: 1307 km
right ascension of ascending node: 136.9557°
argument of perigee: 187.0149°
revolutions per day: 13.47049854
mean anomaly at epoch: 283.3618°
orbit number at epoch: 97259

The dashed part of the orbit path shows where the satellite is in the earth's shadow,  

DLR